2023 KX
ephemeris date magn radius delta ra dec elong phase
Today4 Sep 202628.61.303 AU2.156 AU12h27m+08°07'24.1°18.4°
2023 KX - 2026-09-04
astro.vanbuitenen.nl


 
-1 year
-1 month
-1 day
Now
+1 day
+1 month
+1 year

The interactive orbit chart above shows the body's path through the solar system and its position at the given date. Green and blue lines are shown perpendicular to the ecliptic plane: Green if the path is above the ecliptic plane, blue if it is below. (Left-click and drag to rotate the view; Right-click and drag to move the view; Use scroll wheel to zoom in our out.)

The orbital elements of 2023 KX are:

            e (Eccentricity)                : 0.5449553
            a (Semimajor axis)              : 2.2623127
            i (Inclination)                 : 24.67560
            Ω (Longitude of ascending node) : 62.63448
            ω (Argument of perihelion)      : 201.48278
            M (Mean anomaly)                : 315.50903
            Epoch                           : 2026 Jun 09

            L (Longitude of perihelion)     : 82.31283
            B (Latitude of perihelion)      : -8.79446
            P (Orbital period in years)     : 3.40            
        

The light curve chart below shows the estimated development of the minor planet's magnitude.


The all-sky chart below shows the path of the minor planet over the same period as the light curve. The current position is marked yellow.





The following chart shows the path of the minor planet in the next few days. The field of view is optimized for (~10x50) binoculars and finderscopes.




Ephemerides:
Date       Time       RA (2000)    DEC (2000)    delta   radius  elong  phase   PA    magn
2026-09-04 00:00 UT   12 27 42.4   +08 07 35     2.156    1.303   24.1   18.4    90   28.6 
2026-09-04 04:43 UT   12 28 13.5   +08 02 05     2.156    1.301   24.1   18.4    90   28.6 
2026-09-05 00:00 UT   12 30 20.6   +07 39 33     2.152    1.296   23.9   18.4    90   28.5 
2026-09-06 00:00 UT   12 32 59.5   +07 11 19     2.147    1.289   23.7   18.3    90   28.5 
2026-09-07 00:00 UT   12 35 39.2   +06 42 55     2.143    1.283   23.5   18.2    90   28.5 
2026-09-08 00:00 UT   12 38 19.6   +06 14 20     2.138    1.276   23.3   18.2    90   28.5 
2026-09-09 00:00 UT   12 41 00.8   +05 45 35     2.134    1.269   23.0   18.1    91   28.5 
2026-09-10 00:00 UT   12 43 42.8   +05 16 39     2.129    1.263   22.8   18.0    91   28.5 
2026-09-11 00:00 UT   12 46 25.6   +04 47 33     2.124    1.256   22.6   18.0    91   28.4 
2026-09-12 00:00 UT   12 49 09.2   +04 18 17     2.120    1.250   22.4   17.9    91   28.4 
2026-09-13 00:00 UT   12 51 53.7   +03 48 51     2.115    1.243   22.2   17.8    91   28.4 
2026-09-14 00:00 UT   12 54 39.1   +03 19 16     2.111    1.237   22.0   17.8    91   28.4 


    Terminology:
            
    delta:  distance between minor planet and earth in AU
    radius: distance between minor planet and sun in AU
    magn:   magnitude (brightness) estimate    
    ra:     right ascension in hours (24h = 360deg)
    dec:    declination in degrees
    elong:  elongation in degrees (angle sun-earth-minor planet)    
    phase:  phase angle in degrees (angle sun-minor planet-earth)        
    AU:     Astronomical Unit (mean distance between earth and sun: 149597870.7 km
    

Orbital elements provided by the MPC (Minor Planet Center).
Calculations by a modified version of AAPlus, a C# implementation of the AA+ project by PJ Naughter from the algorithms presented in the book "Astronomical Algorithms" by Jean Meeus.
NGC2000 dso catalog and star labels from VizieR as provided by the Strasbourg astronomical Data Center.
Tycho2 catalog from the ESO archive.